Time,TemperatureF,DewpointF,PressureIn,WindDirection,WindDirectionDegrees,WindSpeedMPH,WindSpeedGustMPH,Humidity,HourlyPrecipIn,Conditions,Clouds,dailyrainin,SolarRadiationWatts/m^2,SoftwareType,DateUTC
2013-01-14 00:02:00,33.0,33.0,-100.00,ENE,74,4.0,7.0,99,0.00,,,0.00,0.000000,,2013-01-14 09:02:00,
2013-01-14 00:12:00,33.0,33.0,-100.00,ENE,74,4.0,7.0,99,0.00,,,0.00,0.000000,,2013-01-14 09:12:00,
2013-01-14 00:22:00,33.0,33.0,-100.00,ENE,74,4.0,7.0,99,0.00,,,0.00,0.000000,,2013-01-14 09:22:00,
2013-01-14 00:53:00,34.0,33.0,-100.00,East,98,7.0,10.0,97,0.00,,,0.00,0.000000,,2013-01-14 09:53:00,
2013-01-14 01:02:00,34.0,33.0,-100.00,East,98,7.0,10.0,97,0.00,,,0.00,0.000000,,2013-01-14 10:02:00,
2013-01-14 01:12:00,34.0,33.0,-100.00,East,98,7.0,10.0,97,0.00,,,0.00,0.000000,,2013-01-14 10:12:00,
2013-01-14 01:22:00,34.0,33.0,-100.00,East,98,7.0,10.0,97,0.00,,,0.00,0.000000,,2013-01-14 10:22:00,
2013-01-14 01:53:00,33.0,31.0,-100.00,West,269,2.0,9.0,94,0.00,,,0.00,0.000000,,2013-01-14 10:53:00,
2013-01-14 02:02:00,33.0,31.0,-100.00,West,269,2.0,9.0,94,0.00,,,0.00,0.000000,,2013-01-14 11:02:00,
2013-01-14 02:12:00,33.0,31.0,-100.00,West,269,2.0,9.0,94,0.00,,,0.00,0.000000,,2013-01-14 11:12:00,
2013-01-14 02:22:00,33.0,31.0,-100.00,West,269,2.0,9.0,94,0.00,,,0.00,0.000000,,2013-01-14 11:22:00,
2013-01-14 02:53:00,30.0,29.0,-100.00,SSE,165,3.0,4.0,96,0.00,,,0.00,0.000000,,2013-01-14 11:53:00,
2013-01-14 03:02:00,30.0,29.0,-100.00,SSE,165,3.0,4.0,96,0.00,,,0.00,0.000000,,2013-01-14 12:02:00,
2013-01-14 03:12:00,30.0,29.0,-100.00,SSE,165,3.0,4.0,96,0.00,,,0.00,0.000000,,2013-01-14 12:12:00,
2013-01-14 03:22:00,30.0,29.0,-100.00,SSE,165,3.0,4.0,96,0.00,,,0.00,0.000000,,2013-01-14 12:22:00,
2013-01-14 03:53:00,27.0,27.0,-100.00,North,11,2.0,4.0,98,0.00,,,0.00,0.000000,,2013-01-14 12:53:00,
2013-01-14 04:03:00,27.0,27.0,-100.00,North,11,2.0,4.0,98,0.00,,,0.00,0.000000,,2013-01-14 13:03:00,
2013-01-14 04:12:00,27.0,27.0,-100.00,North,11,2.0,4.0,98,0.00,,,0.00,0.000000,,2013-01-14 13:12:00,
2013-01-14 04:22:00,27.0,27.0,-100.00,North,11,2.0,4.0,98,0.00,,,0.00,0.000000,,2013-01-14 13:22:00,
2013-01-14 04:53:00,27.0,27.0,-100.00,East,93,1.0,3.0,98,0.00,,,0.00,0.000000,,2013-01-14 13:53:00,
2013-01-14 05:02:00,27.0,27.0,-100.00,East,93,1.0,3.0,98,0.00,,,0.00,0.000000,,2013-01-14 14:02:00,
2013-01-14 05:12:00,27.0,27.0,-100.00,East,93,1.0,3.0,98,0.00,,,0.00,0.000000,,2013-01-14 14:12:00,
2013-01-14 05:22:00,27.0,27.0,-100.00,East,93,1.0,3.0,98,0.00,,,0.00,0.000000,,2013-01-14 14:22:00,
2013-01-14 05:53:00,28.0,28.0,-100.00,NNW,347,2.0,3.0,98,0.00,,,0.00,0.000000,,2013-01-14 14:53:00,
2013-01-14 06:03:00,28.0,28.0,-100.00,NNW,347,2.0,3.0,98,0.00,,,0.00,0.000000,,2013-01-14 15:03:00,
2013-01-14 06:12:00,28.0,28.0,-100.00,NNW,347,2.0,3.0,98,0.00,,,0.00,0.000000,,2013-01-14 15:12:00,
2013-01-14 06:23:00,28.0,28.0,-100.00,NNW,347,2.0,3.0,98,0.00,,,0.00,0.000000,,2013-01-14 15:23:00,
2013-01-14 06:53:00,27.0,26.0,-100.00,NNW,336,2.0,4.0,97,0.00,,,0.00,0.000000,,2013-01-14 15:53:00,
2013-01-14 07:02:00,27.0,26.0,-100.00,NNW,336,2.0,4.0,97,0.00,,,0.00,0.000000,,2013-01-14 16:02:00,
2013-01-14 07:12:00,27.0,26.0,-100.00,NNW,336,2.0,4.0,97,0.00,,,0.00,0.000000,,2013-01-14 16:12:00,
2013-01-14 07:22:00,27.0,26.0,-100.00,NNW,336,2.0,4.0,97,0.00,,,0.00,0.000000,,2013-01-14 16:22:00,
2013-01-14 07:53:00,28.0,28.0,-100.00,East,93,2.0,4.0,98,0.00,,,0.00,0.000000,,2013-01-14 16:53:00,
2013-01-14 08:03:00,28.0,28.0,-100.00,East,93,2.0,4.0,98,0.00,,,0.00,0.000000,,2013-01-14 17:03:00,
2013-01-14 08:12:00,28.0,28.0,-100.00,East,93,2.0,4.0,98,0.00,,,0.00,0.000000,,2013-01-14 17:12:00,
2013-01-14 08:22:00,28.0,28.0,-100.00,East,93,2.0,4.0,98,0.00,,,0.00,0.000000,,2013-01-14 17:22:00,
2013-01-14 08:53:00,30.0,29.0,-100.00,WNW,292,2.0,5.0,98,0.00,,,0.00,0.000000,,2013-01-14 17:53:00,
2013-01-14 09:03:00,30.0,29.0,-100.00,WNW,292,2.0,5.0,98,0.00,,,0.00,0.000000,,2013-01-14 18:03:00,
2013-01-14 09:12:00,30.0,29.0,-100.00,WNW,292,2.0,5.0,98,0.00,,,0.00,0.000000,,2013-01-14 18:12:00,
2013-01-14 09:22:00,30.0,29.0,-100.00,WNW,292,2.0,5.0,98,0.00,,,0.00,0.000000,,2013-01-14 18:22:00,
2013-01-14 09:53:00,33.0,33.0,-100.00,East,87,5.0,8.0,99,0.00,,,0.00,0.000000,,2013-01-14 18:53:00,
2013-01-14 10:03:00,33.0,33.0,-100.00,East,87,5.0,8.0,99,0.00,,,0.00,0.000000,,2013-01-14 19:03:00,
2013-01-14 10:12:00,33.0,33.0,-100.00,East,87,5.0,8.0,99,0.00,,,0.00,0.000000,,2013-01-14 19:12:00,
2013-01-14 10:22:00,33.0,33.0,-100.00,East,87,5.0,8.0,99,0.00,,,0.00,0.000000,,2013-01-14 19:22:00,
2013-01-14 10:53:00,35.0,32.0,-100.00,WSW,237,3.0,12.0,90,0.00,,,0.00,0.000000,,2013-01-14 19:53:00,
2013-01-14 11:03:00,35.0,32.0,-100.00,WSW,237,3.0,12.0,90,0.00,,,0.00,0.000000,,2013-01-14 20:03:00,
2013-01-14 11:12:00,35.0,32.0,-100.00,WSW,237,3.0,12.0,90,0.00,,,0.00,0.000000,,2013-01-14 20:12:00,
2013-01-14 11:22:00,35.0,32.0,-100.00,WSW,237,3.0,12.0,90,0.00,,,0.00,0.000000,,2013-01-14 20:22:00,
2013-01-14 11:53:00,33.0,32.0,-100.00,NNW,328,2.0,6.0,95,0.02,,,0.02,2.000000,,2013-01-14 20:53:00,
2013-01-14 12:02:00,33.0,32.0,-100.00,NNW,328,2.0,6.0,95,0.02,,,0.02,2.000000,,2013-01-14 21:02:00,
2013-01-14 12:12:00,33.0,32.0,-100.00,NNW,328,2.0,6.0,95,0.02,,,0.02,2.000000,,2013-01-14 21:12:00,
2013-01-14 12:22:00,33.0,32.0,-100.00,NNW,328,2.0,6.0,95,0.02,,,0.02,2.000000,,2013-01-14 21:22:00,
2013-01-14 12:53:00,34.0,33.0,-100.00,West,274,7.0,11.0,95,0.02,,,0.04,13.000000,,2013-01-14 21:53:00,
2013-01-14 13:02:00,34.0,33.0,-100.00,West,274,7.0,11.0,95,0.02,,,0.04,13.000000,,2013-01-14 22:02:00,
2013-01-14 13:12:00,34.0,33.0,-100.00,West,274,7.0,11.0,95,0.02,,,0.04,13.000000,,2013-01-14 22:12:00,
2013-01-14 13:22:00,34.0,33.0,-100.00,West,274,7.0,11.0,95,0.02,,,0.04,13.000000,,2013-01-14 22:22:00,
2013-01-14 13:52:00,35.0,33.0,-100.00,West,273,4.0,12.0,92,0.06,,,0.10,19.000000,,2013-01-14 22:52:00,
2013-01-14 14:02:00,35.0,33.0,-100.00,West,273,4.0,12.0,92,0.06,,,0.10,19.000000,,2013-01-14 23:02:00,
2013-01-14 14:12:00,35.0,33.0,-100.00,West,273,4.0,12.0,92,0.06,,,0.10,19.000000,,2013-01-14 23:12:00,
2013-01-14 14:22:00,35.0,33.0,-100.00,West,273,4.0,12.0,92,0.06,,,0.10,19.000000,,2013-01-14 23:22:00,
2013-01-14 14:53:00,33.0,32.0,-100.00,SW,231,8.0,11.0,96,0.08,,,0.18,6.000000,,2013-01-14 23:53:00,
2013-01-14 15:02:00,33.0,32.0,-100.00,SW,231,8.0,11.0,96,0.08,,,0.18,6.000000,,2013-01-15 00:02:00,
2013-01-14 15:12:00,33.0,32.0,-100.00,SW,231,8.0,11.0,96,0.08,,,0.18,6.000000,,2013-01-15 00:12:00,
2013-01-14 15:22:00,33.0,32.0,-100.00,SW,231,8.0,11.0,96,0.08,,,0.18,6.000000,,2013-01-15 00:22:00,
2013-01-14 15:53:00,32.0,32.0,-100.00,West,273,4.0,11.0,98,0.06,,,0.24,2.000000,,2013-01-15 00:53:00,
2013-01-14 16:02:00,32.0,32.0,-100.00,West,273,4.0,11.0,98,0.06,,,0.24,2.000000,,2013-01-15 01:02:00,
2013-01-14 16:12:00,32.0,32.0,-100.00,West,273,4.0,11.0,98,0.06,,,0.24,2.000000,,2013-01-15 01:12:00,
2013-01-14 16:22:00,32.0,32.0,-100.00,West,273,4.0,11.0,98,0.06,,,0.24,2.000000,,2013-01-15 01:22:00,
2013-01-14 16:52:00,32.0,32.0,-100.00,SSW,208,4.0,6.0,98,0.04,,,0.28,1.000000,,2013-01-15 01:52:00,
2013-01-14 17:02:00,32.0,32.0,-100.00,SSW,208,4.0,6.0,98,0.04,,,0.28,1.000000,,2013-01-15 02:02:00,
2013-01-14 17:12:00,32.0,32.0,-100.00,SSW,208,4.0,6.0,98,0.04,,,0.28,1.000000,,2013-01-15 02:12:00,
2013-01-14 17:22:00,32.0,32.0,-100.00,SSW,208,4.0,6.0,98,0.04,,,0.28,1.000000,,2013-01-15 02:22:00,
2013-01-14 17:53:00,33.0,33.0,-100.00,SSW,210,6.0,9.0,99,0.06,,,0.34,0.000000,,2013-01-15 02:53:00,
2013-01-14 18:02:00,33.0,33.0,-100.00,SSW,210,6.0,9.0,99,0.06,,,0.34,0.000000,,2013-01-15 03:02:00,
2013-01-14 18:12:00,33.0,33.0,-100.00,SSW,210,6.0,9.0,99,0.06,,,0.34,0.000000,,2013-01-15 03:12:00,
2013-01-14 18:22:00,33.0,33.0,-100.00,SSW,210,6.0,9.0,99,0.06,,,0.34,0.000000,,2013-01-15 03:22:00,
2013-01-14 18:52:00,35.0,34.0,-100.00,WSW,245,5.0,9.0,97,0.08,,,0.42,0.000000,,2013-01-15 03:52:00,
2013-01-14 19:02:00,35.0,34.0,-100.00,WSW,245,5.0,9.0,97,0.08,,,0.42,0.000000,,2013-01-15 04:02:00,
2013-01-14 19:12:00,35.0,34.0,-100.00,WSW,245,5.0,9.0,97,0.08,,,0.42,0.000000,,2013-01-15 04:12:00,
2013-01-14 19:22:00,35.0,34.0,-100.00,WSW,245,5.0,9.0,97,0.08,,,0.42,0.000000,,2013-01-15 04:22:00,
2013-01-14 19:52:00,34.0,33.0,-100.00,WSW,248,2.0,9.0,97,0.04,,,0.46,0.000000,,2013-01-15 04:52:00,
2013-01-14 20:03:00,34.0,33.0,-100.00,WSW,248,2.0,9.0,97,0.04,,,0.46,0.000000,,2013-01-15 05:03:00,
2013-01-14 20:12:00,34.0,33.0,-100.00,WSW,248,2.0,9.0,97,0.04,,,0.46,0.000000,,2013-01-15 05:12:00,
2013-01-14 20:22:00,34.0,33.0,-100.00,WSW,248,2.0,9.0,97,0.04,,,0.46,0.000000,,2013-01-15 05:22:00,
2013-01-14 20:52:00,34.0,34.0,-100.00,West,260,6.0,10.0,98,0.04,,,0.50,0.000000,,2013-01-15 05:52:00,
2013-01-14 21:02:00,34.0,34.0,-100.00,West,260,6.0,10.0,98,0.04,,,0.50,0.000000,,2013-01-15 06:02:00,
2013-01-14 21:12:00,34.0,34.0,-100.00,West,260,6.0,10.0,98,0.04,,,0.50,0.000000,,2013-01-15 06:12:00,
2013-01-14 21:22:00,34.0,34.0,-100.00,West,260,6.0,10.0,98,0.04,,,0.50,0.000000,,2013-01-15 06:22:00,
2013-01-14 21:53:00,33.0,32.0,-100.00,West,264,7.0,12.0,97,0.02,,,0.52,0.000000,,2013-01-15 06:53:00,
2013-01-14 22:02:00,33.0,32.0,-100.00,West,264,7.0,12.0,97,0.02,,,0.52,0.000000,,2013-01-15 07:02:00,
2013-01-14 22:12:00,33.0,32.0,-100.00,West,264,7.0,12.0,97,0.02,,,0.52,0.000000,,2013-01-15 07:12:00,
2013-01-14 22:22:00,33.0,32.0,-100.00,West,264,7.0,12.0,97,0.02,,,0.52,0.000000,,2013-01-15 07:22:00,
2013-01-14 22:52:00,32.0,31.0,-100.00,WNW,288,9.0,15.0,96,0.04,,,0.56,0.000000,,2013-01-15 07:52:00,
2013-01-14 23:02:00,32.0,31.0,-100.00,WNW,288,9.0,15.0,96,0.04,,,0.56,0.000000,,2013-01-15 08:02:00,
2013-01-14 23:12:00,32.0,31.0,-100.00,WNW,288,9.0,15.0,96,0.04,,,0.56,0.000000,,2013-01-15 08:12:00,
2013-01-14 23:22:00,32.0,31.0,-100.00,WNW,288,9.0,15.0,96,0.04,,,0.56,0.000000,,2013-01-15 08:22:00,
2013-01-14 23:53:00,31.0,26.0,-100.00,West,273,11.0,22.0,82,0.02,,,0.58,0.000000,,2013-01-15 08:53:00,